HULIANWANG DIGUI 14A

Last updated on Wed Dec 10 2025 00:02:08 GMT+0000 (Coordinated Universal Time)

1 66915U 25285A 25343.64437797 -.00000130 00000+0 13676-4 0 9994 2 66915 50.0033 129.9050 0008097 272.0032 87.9946 14.05466034 473
UTC large
Height (km)
Speed (km/s)
/
Latitude / Longitude
Inclination (degrees)
Orbital Period (minutes)
Azimuth
Elevation
Range (km)
Doppler Factor

Next 0 passes for location: London (51.5072 / 0.1276)

Sorry there are no passes over London.